Location: Lac Lasalle
(46.0398°N, 74.1576°W)
Time: 16:37:47
(UTC-05:00)

nSIGHT-1 - Visible Passes

Search period start: 15 December 2019 00:00
Search period end: 25 December 2019 00:00
Orbit: 325 x 328 km, 51.6° (Epoch: 15 December)

Date Brightness Start Highest point End Pass type
(mag) Time Alt. Az. Time Alt. Az. Time Alt. Az.
15 Dec ? 05:34:03 30° NE 05:34:03 30° NE 05:35:47 10° NE visible
16 Dec ? 05:51:05 29° N 05:51:05 29° N 05:53:16 10° NE visible
17 Dec ? 06:07:57 23° NNW 06:08:24 24° N 06:10:47 10° NE visible
18 Dec ? 06:24:42 17° NW 06:26:00 25° N 06:28:24 10° ENE visible
19 Dec ? 05:10:18 12° NE 05:10:18 12° NE 05:10:40 10° NE visible
19 Dec ? 06:41:20 13° NW 06:43:31 31° NNE 06:46:03 10° E visible
20 Dec ? 05:26:52 19° NE 05:26:52 19° NE 05:28:05 10° ENE visible
20 Dec ? 06:58:08 10° WNW 07:00:51 51° NNE 07:03:34 10° E visible
21 Dec ? 05:43:21 28° NNE 05:43:21 28° NNE 05:45:34 10° ENE visible
22 Dec ? 05:59:46 37° NNW 06:00:19 43° NNE 06:02:59 10° E visible
23 Dec ? 06:16:09 30° WNW 06:17:21 87° NNE 06:20:07 10° ESE visible
24 Dec ? 05:01:28 15° E 05:01:28 15° E 05:02:04 10° E visible
24 Dec ? 06:32:29 18° W 06:34:12 37° SW 06:36:47 10° SE visible
